Location: Chin
(49.7667°N, 112.4500°W)
Time: 17:49:13
(UTC+00:00)

ISS - Visible Passes

Search period start: 27 November 2021 00:00
Search period end: 07 December 2021 00:00
Orbit: 417 x 423 km, 51.6° (Epoch: 27 November)

Date Brightness Start Highest point End Pass type
(mag) Time Alt. Az. Time Alt. Az. Time Alt. Az.
27 Nov -3.7 00:33:38 10° WSW 00:37:02 80° SSE 00:39:44 15° ENE visible
27 Nov -2.1 02:10:37 10° W 02:12:43 33° WNW 02:12:43 33° WNW visible
28 Nov -3.6 01:23:24 10° W 01:26:47 62° N 01:27:25 50° NE visible
28 Nov -0.1 03:00:23 10° WNW 03:00:24 10° WNW 03:00:24 10° WNW visible
29 Nov -3.6 00:36:11 10° W 00:39:34 69° N 00:42:07 17° ENE visible
29 Nov -1.9 02:13:12 10° WNW 02:15:05 30° WNW 02:15:05 30° WNW visible
30 Nov -3.7 01:25:59 10° WNW 01:29:22 63° N 01:29:47 56° NE visible
01 Dec -3.6 00:38:44 10° W 00:42:07 60° N 00:44:31 18° ENE visible
01 Dec -1.8 02:15:40 10° WNW 02:17:30 29° WNW 02:17:30 29° WNW visible
02 Dec -3.9 01:28:26 10° WNW 01:31:51 83° NNE 01:32:15 66° E visible
03 Dec -3.7 00:41:12 10° WNW 00:44:36 70° N 00:47:05 17° E visible
03 Dec -1.7 02:18:07 10° W 02:20:04 28° W 02:20:04 28° W visible
04 Dec -3.3 01:30:48 10° WNW 01:34:10 58° SSW 01:34:59 42° SSE visible
05 Dec -3.6 00:43:31 10° WNW 00:46:56 78° SSW 00:50:02 12° ESE visible
05 Dec -1.2 02:20:49 10° W 02:23:02 19° SW 02:23:02 19° SW visible
06 Dec -1.9 01:33:16 10° W 01:36:15 28° SW 01:38:16 16° SSE visible
